Change the Weather History Date:

Tuesday, November 29, 2011

  Actual Average Record
Temperature  
Mean Temperature 25 °F -  
Max Temperature 33 °F 24 °F 41 °F (1997)
Min Temperature 17 °F 13 °F -7 °F (2007)
Degree Days  
Heating Degree Days 40    
Moisture  
Dew Point 17 °F    
Average Humidity 67    
Maximum Humidity 86    
Minimum Humidity 51    
Precipitation  
Precipitation 0.00 in - - ()
Sea Level Pressure  
Sea Level Pressure 30.16 in    
Wind  
Wind Speed 7 mph (SSW)    
Max Wind Speed 16 mph    
Max Gust Speed 20 mph    
Visibility 10 miles    
Events      
Averages and records for this station are not official NWS values.
T = Trace of Precipitation, MM = Missing Value Source: NWS Daily Summary

Daily Weather History Graph

Daily Weather History Graph

Search for Another Location

Airport or City:

Trip Planner

Search our weather history database for the weather conditions in past years. The results will help you decide how hot, cold, wet, or windy it might be!

Date:

Astronomy

Nov. 29, 2011 Rise Set
Actual Time 7:50 AM CST 4:24 PM CST
Civil Twilight 7:14 AM CST 5:01 PM CST
Nautical Twilight 6:34 AM CST 5:41 PM CST
Astronomical Twilight 5:55 AM CST 6:19 PM CST
Moon 11:28 AM CST (11/29) 9:30 PM CST (11/29)
Length of Visible Light 9h 47m
Length of Day
8h 34m
Waxing Crescent, 24% of the Moon is Illuminated
Nov 29
Waxing Crescent
Dec 2
First Quarter
Dec 10
Full
Dec 17
Last Quarter
Dec 24
New

Hourly Weather History & Observations

Time (CST) Temp. Windchill Dew Point Humidity Pressure Visibility Wind Dir Wind Speed Gust Speed Precip Events Conditions
12:13 AM 24.8 °F 15.3 °F 15.8 °F 69% 30.29 in 10.0 mi WNW 9.2 mph - N/A   Clear
12:33 AM 24.8 °F 15.3 °F 15.8 °F 69% 30.29 in 10.0 mi WNW 9.2 mph - N/A   Clear
1:13 AM 23.0 °F 13.9 °F 15.8 °F 74% 30.29 in 10.0 mi WNW 8.1 mph - N/A   Clear
1:33 AM 24.8 °F 19.1 °F 15.8 °F 69% 30.29 in 10.0 mi WNW 4.6 mph - N/A   Clear
1:53 AM 24.8 °F 16.9 °F 15.8 °F 69% 30.30 in 10.0 mi WNW 6.9 mph - N/A   Clear
2:12 AM 23.0 °F 14.7 °F 14.0 °F 68% 30.30 in 10.0 mi WNW 6.9 mph - N/A   Clear
2:55 AM 21.2 °F 13.6 °F 12.2 °F 68% 30.30 in 10.0 mi NW 5.8 mph - N/A   Clear
4:05 AM 21.2 °F 16.4 °F 14.0 °F 74% 30.29 in 10.0 mi WSW 3.5 mph - N/A   Clear
4:09 AM 21.2 °F 14.9 °F 14.0 °F 74% 30.29 in 10.0 mi WSW 4.6 mph - N/A   Clear
4:33 AM 19.4 °F - 12.2 °F 74% 30.29 in 10.0 mi Calm Calm - N/A   Clear
4:53 AM 19.4 °F - 12.2 °F 74% 30.30 in 10.0 mi Calm Calm - N/A   Clear
5:13 AM 19.4 °F 14.3 °F 12.2 °F 74% 30.30 in 10.0 mi West 3.5 mph - N/A   Clear
5:53 AM 19.4 °F - 12.2 °F 74% 30.30 in 10.0 mi Calm Calm - N/A   Clear
6:13 AM 19.4 °F 14.3 °F 12.2 °F 74% 30.30 in 10.0 mi WSW 3.5 mph - N/A   Clear
6:34 AM 19.4 °F 14.3 °F 12.2 °F 74% 30.30 in 10.0 mi West 3.5 mph - N/A   Clear
6:53 AM 19.4 °F - 12.2 °F 74% 30.29 in 10.0 mi Calm Calm - N/A   Clear
7:13 AM 17.6 °F - 12.2 °F 79% 30.29 in 10.0 mi Calm Calm - N/A   Clear
7:34 AM 17.6 °F - 12.2 °F 79% 30.28 in 10.0 mi Calm Calm - N/A   Clear
7:53 AM 19.4 °F - 12.2 °F 74% 30.28 in 10.0 mi Calm Calm - N/A   Clear
8:34 AM 19.4 °F 10.4 °F 12.2 °F 74% 30.28 in 10.0 mi SW 6.9 mph - N/A   Clear
8:53 AM 21.2 °F 14.9 °F 15.8 °F 80% 30.29 in 10.0 mi SSW 4.6 mph - N/A   Clear
9:13 AM 19.4 °F 11.5 °F 15.8 °F 86% 30.27 in 10.0 mi SSW 5.8 mph - N/A   Clear
9:34 AM 21.2 °F 12.6 °F 17.6 °F 86% 30.26 in 10.0 mi SSW 6.9 mph - N/A   Clear
9:53 AM 24.8 °F 16.1 °F 17.6 °F 74% 30.25 in 10.0 mi South 8.1 mph - N/A   Clear
10:13 AM 26.6 °F 18.2 °F 17.6 °F 69% 30.25 in 10.0 mi South 8.1 mph - N/A   Clear
10:34 AM 28.4 °F 19.1 °F 17.6 °F 64% 30.24 in 10.0 mi South 10.4 mph - N/A   Clear
10:53 AM 28.4 °F 19.1 °F 17.6 °F 64% 30.24 in 10.0 mi South 10.4 mph - N/A   Clear
11:13 AM 28.4 °F 19.7 °F 17.6 °F 64% 30.23 in 10.0 mi South 9.2 mph - N/A   Clear
11:33 AM 28.4 °F 19.1 °F 14.0 °F 55% 30.23 in 10.0 mi SSW 10.4 mph - N/A   Clear
11:53 AM 30.2 °F 21.3 °F 14.0 °F 51% 30.22 in 10.0 mi South 10.4 mph - N/A   Clear
12:13 PM 30.2 °F 21.3 °F 15.8 °F 55% 30.20 in 10.0 mi South 10.4 mph - N/A   Clear
12:33 PM 30.2 °F 21.9 °F 17.6 °F 60% 30.19 in 10.0 mi South 9.2 mph - N/A   Clear
12:53 PM 30.2 °F 21.9 °F 17.6 °F 60% 30.18 in 10.0 mi South 9.2 mph - N/A   Clear
1:33 PM 30.2 °F 19.3 °F 19.4 °F 64% 30.15 in 10.0 mi South 15.0 mph - N/A   Clear
1:54 PM 30.2 °F 18.9 °F 19.4 °F 64% 30.13 in 10.0 mi South 16.1 mph - N/A   Clear
2:13 PM 32.0 °F 22.5 °F 19.4 °F 60% 30.12 in 10.0 mi South 12.7 mph - N/A   Clear
2:33 PM 32.0 °F 21.6 °F 21.2 °F 64% 30.10 in 10.0 mi South 15.0 mph - N/A   Clear
2:53 PM 32.0 °F 21.2 °F 21.2 °F 64% 30.08 in 10.0 mi South 16.1 mph - N/A   Clear
3:13 PM 32.0 °F 22.1 °F 21.2 °F 64% 30.07 in 10.0 mi South 13.8 mph - N/A   Clear
3:34 PM 33.8 °F 25.8 °F 19.4 °F 56% 30.06 in 10.0 mi South 10.4 mph - N/A   Clear
3:53 PM 33.8 °F 26.4 °F 19.4 °F 56% 30.05 in 10.0 mi SSW 9.2 mph - N/A   Clear
4:13 PM 32.0 °F 23.6 °F 17.6 °F 55% 30.04 in 10.0 mi South 10.4 mph - N/A   Clear
4:34 PM 32.0 °F 23.6 °F 19.4 °F 60% 30.05 in 10.0 mi SSW 10.4 mph - N/A   Clear
4:53 PM 30.2 °F 21.9 °F 19.4 °F 64% 30.04 in 10.0 mi SSW 9.2 mph - N/A   Clear
5:13 PM 32.0 °F 23.0 °F 19.4 °F 60% 30.02 in 10.0 mi South 11.5 mph - N/A   Clear
5:33 PM 30.2 °F 21.3 °F 19.4 °F 64% 30.01 in 10.0 mi South 10.4 mph - N/A   Clear
5:53 PM 30.2 °F 20.8 °F 19.4 °F 64% 29.99 in 10.0 mi South 11.5 mph - N/A   Clear
6:14 PM 30.2 °F 21.3 °F 19.4 °F 64% 29.98 in 10.0 mi South 10.4 mph 19.6 mph N/A   Clear
6:33 PM 30.2 °F 20.8 °F 19.4 °F 64% 29.97 in 10.0 mi South 11.5 mph - N/A   Clear
6:53 PM 30.2 °F 20.2 °F 19.4 °F 64% 29.96 in 10.0 mi SSW 12.7 mph 19.6 mph N/A   Clear
7:14 PM 30.2 °F 20.8 °F 19.4 °F 64% 29.96 in 10.0 mi SSW 11.5 mph 18.4 mph N/A   Clear
7:33 PM 30.2 °F 21.9 °F 19.4 °F 64% 29.95 in 10.0 mi SSW 9.2 mph - N/A   Clear
7:53 PM 30.2 °F 20.8 °F 19.4 °F 64% 29.95 in 10.0 mi SW 11.5 mph - N/A   Mostly Cloudy
8:13 PM 30.2 °F 21.3 °F 19.4 °F 64% 29.94 in 10.0 mi SW 10.4 mph - N/A   Overcast
8:33 PM 30.2 °F 20.8 °F 19.4 °F 64% 29.94 in 10.0 mi SW 11.5 mph - N/A   Overcast
8:54 PM 30.2 °F 22.6 °F 19.4 °F 64% 29.93 in 10.0 mi SW 8.1 mph - N/A   Overcast
9:13 PM 30.2 °F 23.4 °F 19.4 °F 64% 29.92 in 10.0 mi SSW 6.9 mph - N/A   Mostly Cloudy
9:53 PM 28.4 °F 22.2 °F 19.4 °F 69% 29.91 in 10.0 mi SSW 5.8 mph - N/A   Scattered Clouds
10:14 PM 28.4 °F 21.2 °F 19.4 °F 69% 29.90 in 10.0 mi SW 6.9 mph - N/A   Clear
10:33 PM 28.4 °F 22.2 °F 19.4 °F 69% 29.89 in 10.0 mi SSW 5.8 mph - N/A   Clear
10:53 PM 28.4 °F 21.2 °F 19.4 °F 69% 29.88 in 10.0 mi SSW 6.9 mph - N/A   Clear
11:14 PM 28.4 °F 21.2 °F 17.6 °F 64% 29.89 in 10.0 mi SW 6.9 mph - N/A   Clear
11:33 PM 28.4 °F 24.6 °F 17.6 °F 64% 29.89 in 10.0 mi SW 3.5 mph - N/A   Clear
11:53 PM 28.4 °F 24.6 °F 19.4 °F 69% 29.88 in 10.0 mi SSW 3.5 mph - N/A   Clear